Tracking 17150 objects as of 5-August-2015
HD Live streaming from Space Station

BEESAT

Track BEESAT now!
10-day predictions
BEESAT is classified as:


NORAD ID: 35933
Int'l Code: 2009-051C
Perigee: 710.4 km
Apogee: 718.3 km
Inclination: 98.4 °
Period: 98.9 minutes
Semi major axis: 7085 km
RCS: 0.033 m2 (small)
Launch date: September 23, 2009
Source: Germany (GER)

BEESAT is a a cubesat satellite built by student teams to test new attitude control systems.
Your satellite tracking list
Your tracking list is empty





NASA's NSSDC Master Catalog

Two Line Element Set (TLE):
1 35933U 09051C   15215.86667546  .00000406  00000-0  10364-3 0  9997
2 35933 098.4149 335.8586 0005573 194.1019 166.0023 14.55658137310998

Source of the keplerian elements: AFSPC

N2YO: 213